Regional Weather Roundup
Issued by NWS Goodland, KS

Home | Current Version | Previous Version | Graphics & Text | Print | Product List | Glossary On
Versions: 1 2 3 4 5 6 7 8 9 10 11 12 13 14 15 16 17 18 19 20 21 22 23 24 25 26 27 28 29 30 31 32 33 34 35 36 37 38 39 40 41 42 43 44 45 46 47 48 49 50
000
ASUS43 KGLD 061659
RWRGLD

GOODLAND FORECAST AREA HOURLY WEATHER ROUNDUP
NATIONAL WEATHER SERVICE GOODLAND KS
1000 AM MST SAT FEB 06 2016

...OFFICIAL OBSERVATIONS...

CITY           SKY/WX    TMP DP  RH WIND       PRES   REMARKS
GOODLAND KS    SUNNY     32  16  51 SW13      30.23S
HILL CITY KS   SUNNY     29  16  58 SW8       30.27F
IMPERIAL NEB   CLOUDY    27  15  61 W12       30.20S WCI  17
MCCOOK NEB     CLOUDY    24  13  62 W10       30.23S WCI  14
AKRON CO       CLOUDY    26  10  50 SW13      30.19S WCI  15
BURLINGTON CO  CLOUDY    32  14  47 SW15      30.23S
LIMON CO       CLOUDY    22   8  55 NW8       30.23S
$$

...UNOFFICIAL OBSERVATIONS...

CITY           SKY/WX    TMP DP  RH WIND       PRES   REMARKS
COLBY KS       SUNNY     28  21  74 SW7       30.25F
GOVE KS          N/A     32  32 100 MISG        N/A
NORTON KS      SUNNY     25  12  58 SW12      30.23S WCI  14
SHARON SPRINGS   N/A     36  24  63 W10         N/A
KIT CARSON CO    N/A     24  14  64 MISG        N/A
YUMA CO          N/A     27  15  61 W13         N/A  WCI  16
$$



USA.gov is the U.S. government's official web portal to all federal, state and local government web resources and services.